Kenansville, NC

2:31 PM EST on November 11, 2019 (GMT -0500)
Duplin County

Weather History for KDPL - October, 2019

Change the Weather History Date:

Saturday, October 19, 2019

  Actual Average (WUND) Record (WUND)
Temperature  
Mean Temperature 54 °F -  
Max Temperature 68 °F - - (-1)
Min Temperature 39 °F - - (-1)
Degree Days  
Heating Degree Days 12    
Growing Degree Days 4 (Base 50)    
Moisture  
Dew Point 48 °F    
Average Humidity 81    
Maximum Humidity 100    
Minimum Humidity 45    
Precipitation  
Precipitation 0.04 in - - ()
Sea Level Pressure  
Sea Level Pressure 30.05 in    
Wind  
Wind Speed 2 mph (East)    
Max Wind Speed 7 mph    
Max Gust Speed -    
Visibility 8 miles    
Events Rain    
Averages and records for this station are not official NWS values.
T = Trace of Precipitation, MM = Missing Value Source: NWS Daily Summary

Daily Weather History Graph

Daily Weather History Graph

Search for Another Location

Airport or City:

Astronomy

Oct. 19, 2019 Rise Set
Actual Time 7:21 AM EDT 6:32 PM EDT
Civil Twilight 6:55 AM EDT 6:57 PM EDT
Nautical Twilight 6:25 AM EDT 7:27 PM EDT
Astronomical Twilight 5:56 AM EDT 7:56 PM EDT
Moon 10:48 PM EDT (10/19) 12:42 PM EDT (10/19)
Length of Visible Light 12h 02m
Length of Day
11h 11m
Waning Gibbous, 70% of the Moon is Illuminated
Oct 19
Waning Gibbous
Oct 21
Last Quarter
Oct 27
New
Nov 4
First Quarter
Nov 12
Full

Hourly Weather History & Observations

Time (EDT) Temp. Windchill Dew Point Humidity Pressure Visibility Wind Dir Wind Speed Gust Speed Precip Events Conditions
12:15 AM 42.8 °F - 41.0 °F 93% 30.06 in 10.0 mi Calm Calm - N/A   Clear
12:35 AM 42.8 °F - 41.0 °F 93% 30.06 in 7.0 mi Calm Calm - N/A   Clear
12:55 AM 42.8 °F - 42.8 °F 100% 30.06 in 10.0 mi Calm Calm - N/A   Clear
1:15 AM 42.8 °F - 41.0 °F 93% 30.06 in 7.0 mi Calm Calm - N/A   Clear
1:55 AM 42.8 °F - 41.0 °F 93% 30.08 in 5.0 mi Calm Calm - N/A   Clear
2:15 AM 42.8 °F - 41.0 °F 93% 30.08 in 7.0 mi Calm Calm - N/A   Clear
2:35 AM 42.8 °F - 41.0 °F 93% 30.09 in 7.0 mi Calm Calm - N/A   Clear
2:55 AM 41.0 °F 38.0 °F 41.0 °F 100% 30.08 in 5.0 mi NNE 4.6 mph - N/A   Clear
3:15 AM 42.8 °F - 41.0 °F 93% 30.07 in 7.0 mi Calm Calm - N/A   Clear
3:35 AM 41.0 °F - 41.0 °F 100% 30.06 in 7.0 mi Calm Calm - N/A   Clear
3:55 AM 41.0 °F - 41.0 °F 100% 30.06 in 7.0 mi Calm Calm - N/A   Clear
4:15 AM 41.0 °F - 41.0 °F 100% 30.06 in 7.0 mi Calm Calm - N/A   Clear
4:35 AM 41.0 °F - 41.0 °F 100% 30.06 in 5.0 mi Calm Calm - N/A   Clear
4:55 AM 41.0 °F - 41.0 °F 100% 30.06 in 5.0 mi Calm Calm - N/A   Clear
5:35 AM 41.0 °F - 39.2 °F 93% 30.08 in 5.0 mi Calm Calm - N/A   Clear
5:55 AM 39.2 °F - 39.2 °F 100% 30.08 in 5.0 mi Calm Calm - N/A   Clear
6:15 AM 41.0 °F - 39.2 °F 93% 30.09 in 5.0 mi Calm Calm - N/A   Clear
6:35 AM 39.2 °F - 39.2 °F 100% 30.09 in 5.0 mi Calm Calm - N/A   Clear
6:55 AM 39.2 °F - 39.2 °F 100% 30.10 in 5.0 mi Calm Calm - N/A   Clear
7:15 AM 39.2 °F - 37.4 °F 93% 30.10 in 4.0 mi Calm Calm - N/A   Clear
7:35 AM 39.2 °F - 37.4 °F 93% 30.10 in 4.0 mi Calm Calm - N/A   Clear
7:55 AM 39.2 °F - 39.2 °F 100% 30.10 in 5.0 mi Calm Calm - N/A   Clear
8:15 AM 41.0 °F 39.0 °F 41.0 °F 100% 30.10 in 7.0 mi NNE 3.5 mph - N/A   Clear
8:35 AM 44.6 °F - 44.6 °F 100% 30.11 in 7.0 mi Calm Calm - N/A   Clear
8:55 AM 48.2 °F - 46.4 °F 93% 30.11 in 7.0 mi Calm Calm - N/A   Clear
9:15 AM 51.8 °F - 48.2 °F 88% 30.11 in 10.0 mi East 3.5 mph - N/A   Clear
9:35 AM 55.4 °F - 46.4 °F 72% 30.12 in 10.0 mi Calm Calm - N/A   Clear
9:55 AM 57.2 °F - 46.4 °F 67% 30.13 in 10.0 mi ESE 3.5 mph - N/A   Clear
10:15 AM 59.0 °F - 44.6 °F 59% 30.12 in 10.0 mi East 3.5 mph - N/A   Clear
10:35 AM 60.8 °F - 42.8 °F 52% 30.12 in 10.0 mi East 5.8 mph - N/A   Clear
10:55 AM 60.8 °F - 44.6 °F 55% 30.12 in 10.0 mi East 4.6 mph - N/A   Clear
11:15 AM 62.6 °F - 42.8 °F 48% 30.12 in 10.0 mi East 5.8 mph - N/A   Clear
11:35 AM 62.6 °F - 42.8 °F 48% 30.12 in 10.0 mi ESE 4.6 mph - N/A   Clear
11:55 AM 64.4 °F - 42.8 °F 45% 30.12 in 10.0 mi East 3.5 mph - N/A   Clear
12:15 PM 64.4 °F - 44.6 °F 49% 30.12 in 10.0 mi SE 6.9 mph - N/A   Clear
12:35 PM 66.2 °F - 44.6 °F 46% 30.11 in 10.0 mi East 3.5 mph - N/A   Clear
12:55 PM 66.2 °F - 46.4 °F 49% 30.10 in 10.0 mi SE 5.8 mph - N/A   Clear
1:15 PM 68.0 °F - 48.2 °F 49% 30.09 in 10.0 mi ESE 4.6 mph - N/A   Clear
1:35 PM 68.0 °F - 48.2 °F 49% 30.07 in 10.0 mi SE 5.8 mph - N/A   Clear
1:55 PM 68.0 °F - 50.0 °F 52% 30.07 in 10.0 mi East 4.6 mph - N/A   Clear
2:15 PM 68.0 °F - 50.0 °F 52% 30.06 in 10.0 mi East 6.9 mph - N/A   Clear
2:35 PM 68.0 °F - 50.0 °F 52% 30.05 in 10.0 mi SE 4.6 mph - N/A   Clear
2:55 PM 68.0 °F - 51.8 °F 56% 30.05 in 10.0 mi ESE 3.5 mph - N/A   Scattered Clouds
3:15 PM 66.2 °F - 51.8 °F 60% 30.04 in 10.0 mi ESE 4.6 mph - N/A   Mostly Cloudy
3:35 PM 66.2 °F - 53.6 °F 64% 30.04 in 10.0 mi East 3.5 mph - N/A   Overcast
3:55 PM 66.2 °F - 53.6 °F 64% 30.04 in 10.0 mi Calm Calm - N/A   Overcast
4:15 PM 66.2 °F - 53.6 °F 64% 30.03 in 10.0 mi East 3.5 mph - N/A   Overcast
4:55 PM 66.2 °F - 55.4 °F 68% 30.02 in 10.0 mi Calm Calm - N/A   Overcast
5:15 PM 66.2 °F - 55.4 °F 68% 30.01 in 10.0 mi East 3.5 mph - N/A   Overcast
5:35 PM 64.4 °F - 55.4 °F 73% 30.01 in 10.0 mi Calm Calm - N/A   Overcast
5:55 PM 64.4 °F - 55.4 °F 73% 30.01 in 7.0 mi Calm Calm - N/A Rain Light Rain
6:15 PM 62.6 °F - 57.2 °F 82% 30.00 in 10.0 mi East 3.5 mph - N/A   Overcast
6:35 PM 62.6 °F - 57.2 °F 82% 30.00 in 10.0 mi Calm Calm - N/A   Mostly Cloudy
7:15 PM 60.8 °F - 57.2 °F 88% 30.01 in 10.0 mi Calm Calm - N/A   Mostly Cloudy
7:35 PM 60.8 °F - 57.2 °F 88% 30.01 in 10.0 mi Calm Calm - N/A   Overcast
7:55 PM 60.8 °F - 57.2 °F 88% 30.00 in 10.0 mi East 3.5 mph - N/A   Overcast
8:15 PM 60.8 °F - 57.2 °F 88% 29.99 in 10.0 mi East 3.5 mph - N/A Rain Light Rain
8:35 PM 60.8 °F - 57.2 °F 88% 29.98 in 10.0 mi East 4.6 mph - N/A   Overcast
8:55 PM 60.8 °F - 57.2 °F 88% 29.97 in 10.0 mi East 5.8 mph - N/A   Overcast
9:15 PM 60.8 °F - 57.2 °F 88% 29.98 in 10.0 mi Calm Calm - N/A   Overcast
9:35 PM 60.8 °F - 57.2 °F 88% 29.97 in 4.0 mi East 4.6 mph - N/A Rain Light Rain
9:55 PM 59.0 °F - 59.0 °F 100% 29.96 in 10.0 mi ESE 3.5 mph - N/A   Overcast
10:15 PM 59.0 °F - 59.0 °F 100% 29.96 in 10.0 mi East 5.8 mph - N/A   Overcast
10:35 PM 60.8 °F - 59.0 °F 94% 29.96 in 10.0 mi ESE 3.5 mph - N/A Rain Light Rain
10:55 PM 60.8 °F - 59.0 °F 94% 29.94 in 7.0 mi ESE 5.8 mph - 0.01 in Rain Light Rain
11:15 PM 60.8 °F - 59.0 °F 94% 29.94 in 5.0 mi East 4.6 mph - N/A Rain Light Rain
11:35 PM 60.8 °F - 60.8 °F 100% 29.92 in 7.0 mi East 3.5 mph - 0.01 in Rain Light Rain
11:55 PM 60.8 °F - 60.8 °F 100% 29.91 in 3.0 mi East 3.5 mph - 0.03 in Rain Light Rain